Flag for Switzerland Weather past 2 weeks in La-Chaux-de-Fonds, Neuchâtel, Switzerland

Now
52 °F

Scattered clouds.


Feels Like: 51 °F
Forecast: 42 / 58 °F
Wind: 3 mph from Northeast

Location: Les Eplatures

Current Time: Sep 1, 2014 at 8:38:19 PM

Latest Report: Sep 1, 2014 at 7:50 PM


Visibility: N/A

Pressure: 30.15 "Hg

Humidity: 88%

Dew point: 48 °F

Location of La-Chaux-de-FondsLocation

Historic Weather in La-Chaux-de-Fonds — Graph

°F

La-Chaux-de-Fonds temperature yesterday

Maximum temperature yesterday: 55 °F (at 10:20 AM)
Minimum temperature yesterday: 48 °F (at 9:50 PM)
Average temperature yesterday: 51 °F

Past Weeks' High & Low Weather Summary

 TemperatureHumidityPressure
High68 °F (Aug 28, 2:20 PM)100% (Aug 17, 11:50 PM)30.21 "Hg (Aug 17, 11:50 PM)
Low39 °F (Aug 21, 3:50 AM)51% (Aug 24, 1:50 PM)29.86 "Hg (Aug 26, 4:20 AM)
Average53 °F84%30.07 "Hg
* Reported Aug 17 7:20 PM — Sep 1 7:20 PM, La-Chaux-de-Fonds, Weather by CustomWeather, © 2014

Note: Actual official high and low records may vary slightly from our data, if they occured in-between our weather recording intervals... More about our weather records

Advertising

La-Chaux-de-Fonds weather history for previous 24 hours

 ConditionsComfort  
Time TempWeatherWind HumidityBarometerVisibility
7:20 PM
Sep 1
54 °FScattered clouds.5 mph77%30.15 "HgN/A
6:20 PM55 °FPassing clouds.7 mph72%30.18 "HgN/A
5:50 PM55 °FScattered clouds.8 mph72%30.18 "HgN/A
5:20 PM57 °FScattered clouds.6 mph67%30.18 "HgN/A
4:50 PM55 °FScattered clouds.8 mph72%30.18 "HgN/A
4:20 PM55 °FScattered clouds.9 mph67%30.18 "HgN/A
3:50 PM55 °FScattered clouds.7 mph67%30.18 "HgN/A
3:20 PM55 °FScattered clouds.7 mph63%30.18 "HgN/A
2:50 PM55 °FScattered clouds.8 mph72%30.18 "HgN/A
2:20 PM55 °FScattered clouds.7 mph72%30.18 "HgN/A
1:50 PM54 °FPartly sunny.7 mph67%30.18 "HgN/A
1:20 PM52 °FBroken clouds.7 mph82%30.18 "HgN/A
12:50 PM52 °FBroken clouds.8 mph82%30.18 "HgN/A
12:20 PM50 °FBroken clouds.8 mph88%30.18 "HgN/A
11:50 AM52 °FBroken clouds.8 mph82%30.15 "HgN/A
11:20 AM50 °FBroken clouds.6 mph88%30.15 "HgN/A
10:50 AM48 °FPartly sunny.6 mph94%30.15 "HgN/A
10:20 AM50 °FPartly sunny.3 mph88%30.15 "HgN/A
9:50 AM48 °FBroken clouds.5 mph87%30.15 "HgN/A
9:20 AM48 °FBroken clouds.1 mph87%30.15 "HgN/A
8:50 AM48 °FPartly cloudy.3 mph87%30.15 "HgN/A
8:20 AM48 °FPartly cloudy.2 mph94%30.12 "HgN/A
7:50 AM48 °FPartly cloudy.2 mph94%30.12 "HgN/A
7:20 AM46 °FPassing clouds.2 mph100%30.12 "HgN/A
6:50 AM46 °FPassing clouds.2 mph100%30.12 "HgN/A
6:20 AM46 °FPassing clouds.3 mph100%30.09 "HgN/A
5:50 AM48 °FPartly cloudy.3 mph94%30.09 "HgN/A
5:20 AM48 °FLow clouds.2 mph94%30.09 "HgN/A
4:50 AM48 °FPartly cloudy.3 mph94%30.12 "HgN/A
4:20 AM48 °FPartly cloudy.2 mph94%30.09 "HgN/A
3:50 AM48 °FPassing clouds.2 mph94%30.09 "HgN/A
3:20 AM48 °FLow clouds.1 mph94%30.09 "HgN/A
2:50 AM48 °FLow clouds.2 mph94%30.09 "HgN/A
2:20 AM48 °FPartly cloudy.3 mph94%30.09 "HgN/A
1:50 AM48 °FSprinkles. Partly cloudy.5 mph94%30.09 "HgN/A
1:20 AM48 °FPartly cloudy.5 mph94%30.09 "HgN/A
12:50 AM48 °FSprinkles. Passing clouds.3 mph94%30.09 "Hg6 mi
12:20 AM48 °FSprinkles. Partly cloudy.3 mph100%30.09 "HgN/A
11:50 PM
Aug 31
48 °FPartly cloudy.2 mph100%30.09 "HgN/A
11:20 PM48 °FPartly cloudy.3 mph100%30.12 "HgN/A
10:50 PM48 °FPassing clouds.2 mph94%30.12 "HgN/A
10:20 PM48 °FPassing clouds.1 mph94%30.12 "HgN/A
9:50 PM48 °FScattered clouds.3 mph94%30.12 "HgN/A
9:20 PM50 °FMostly cloudy.5 mph88%30.12 "HgN/A
8:50 PM50 °FPartly sunny.2 mph94%30.09 "HgN/A
8:20 PM50 °FPartly sunny.6 mph94%30.09 "HgN/A
Weather by CustomWeather, © 2014

See weather overviewHow to use our weather pages